Date,TemperatureHighF,TemperatureAvgF,TemperatureLowF,DewpointHighF,DewpointAvgF,DewpointLowF,HumidityHigh,HumidityAvg,HumidityLow,PressureMaxIn,PressureMinIn,WindSpeedMaxMPH,WindSpeedAvgMPH,GustSpeedMaxMPH,PrecipitationSumIn
2013-1-1,20.3,6.4,-12.6,11.8,-10.4,-33.0,70,46,34,30.06,29.79,29,6,29,0.00
2013-1-2,26.6,19.9,15.3,12.4,8.0,1.7,76,60,42,29.88,29.71,38,8,38,0.00
2013-1-3,22.8,12.3,6.3,6.1,-3.5,-7.3,69,49,34,30.06,29.79,31,9,31,0.00
2013-1-4,41.0,20.7,10.2,10.9,3.9,-2.3,65,49,29,29.91,29.76,33,4,33,0.00
2013-1-5,31.8,14.5,3.9,8.1,0.2,-8.3,68,53,34,29.88,29.68,20,4,20,0.00
2013-1-6,30.7,15.4,8.8,9.7,-0.0,-6.2,75,51,31,30.03,29.74,32,8,32,0.00
2013-1-7,45.1,28.4,16.3,15.7,11.1,5.4,66,49,29,29.76,29.62,32,9,32,0.00
2013-1-8,36.5,24.6,12.6,20.5,13.9,5.6,80,65,40,29.76,29.53,30,9,30,0.00
2013-1-9,38.5,28.8,21.7,20.2,10.6,5.3,67,47,31,30.12,29.68,58,10,58,0.00
2013-1-10,45.5,32.9,22.6,30.8,17.9,9.1,92,58,28,30.03,29.53,38,8,38,0.00
2013-1-11,80.4,34.7,32.9,36.3,34.0,30.7,98,97,92,29.53,29.20,22,5,22,0.00
2013-1-12,33.8,10.6,0.3,33.3,-7.0,-20.9,98,45,34,29.88,29.17,49,12,49,0.00
2013-1-13,14.0,3.6,-2.6,-8.6,-17.9,-23.4,35,35,35,30.00,29.85,18,7,18,0.00
2013-1-14,19.4,6.1,-2.4,-5.0,-16.0,-23.3,36,35,33,30.18,29.97,24,4,24,0.00
2013-1-15,29.1,12.7,4.1,4.1,-9.2,-18.0,51,36,31,30.03,29.56,33,8,33,0.00
2013-1-16,35.4,24.0,5.4,26.0,4.2,-18.1,79,44,28,30.03,29.44,32,10,32,0.00
2013-1-17,26.8,11.6,1.8,0.7,-11.8,-21.3,44,33,29,30.15,30.03,9,5,9,0.00
2013-1-18,46.0,22.8,13.6,18.6,7.3,-3.9,72,52,30,30.06,29.53,23,4,23,0.00
2013-1-19,40.3,21.1,-2.2,26.5,6.0,-23.1,86,54,33,30.03,29.50,51,9,51,0.00
2013-1-20,14.2,3.0,-6.0,-9.7,-19.8,-28.8,35,33,31,30.18,30.03,34,8,34,0.00
2013-1-21,1.9,-8.5,-14.4,0.0,-31.0,-36.3,31,31,31,30.15,30.03,30,6,30,0.00
2013-1-22,7.2,-5.4,-17.0,-17.3,-28.3,-38.5,31,31,31,30.15,29.97,20,6,20,0.00
2013-1-23,17.1,4.1,-8.9,-4.5,-21.0,-34.5,41,29,26,30.36,29.91,38,9,38,0.00
2013-1-24,11.1,0.3,-9.6,-17.1,-26.5,-35.1,26,26,26,30.41,29.91,20,6,20,0.00
2013-1-25,19.8,11.2,-1.1,-1.3,-13.0,-23.8,47,32,26,30.12,29.71,46,12,46,0.00
2013-1-26,-1.1,-3.4,-5.4,-23.8,-25.9,-27.7,32,32,32,30.12,30.06,17,4,17,0.00
2013-1-27,34.5,25.2,17.6,22.5,8.1,-0.8,77,48,36,29.91,29.62,13,4,13,0.00
2013-1-28,39.6,31.8,27.7,30.5,25.6,21.6,95,78,55,29.71,29.47,13,3,13,0.04
2013-1-29,31.6,31.5,31.3,30.1,29.8,29.5,94,93,93,29.47,29.41,13,3,13,0.00
2013-1-30,25.0,14.7,5.4,9.4,-3.0,-13.7,56,45,38,29.59,29.50,52,13,52,0.00
2013-1-31,8.4,-1.0,-11.4,-10.9,-19.5,-29.0,40,40,40,30.06,29.59,46,13,46,0.00